This is the latest recevied weather packets stored in our database for station/object DG9MHV-10. If no packets are shown the sender has not sent any weather packets the latest 1 day(s).
| Time | Temp. | Humidity | Pressure | Rain* | Wind** | Luminosity | Snow |
|---|---|---|---|---|---|---|---|
| 1777792270 | 30.56° C | 97% | 1016.1 hPa | - | - | - | - |
| 1777791370 | 28.89° C | 100% | 1016.2 hPa | - | - | - | - |
| 1777790470 | 27.78° C | 100% | 1016.2 hPa | - | - | - | - |
| 1777789570 | 26.67° C | 100% | 1016.2 hPa | - | - | - | - |
| 1777788670 | 26.67° C | 100% | 1016.2 hPa | - | - | - | - |
| 1777787770 | 23.89° C | 100% | 1016.2 hPa | - | - | - | - |
| 1777786870 | 21.67° C | 100% | 1016.2 hPa | - | - | - | - |
| 1777785970 | 20° C | 100% | 1016.2 hPa | - | - | - | - |
| 1777785070 | 16.11° C | 100% | 1015.8 hPa | - | - | - | - |
| 1777784170 | 15.56° C | 100% | 1015.3 hPa | - | - | - | - |
| 1777783269 | 11.11° C | 100% | 1014.9 hPa | - | - | - | - |
| 1777782369 | 7.78° C | 100% | 1014.9 hPa | - | - | - | - |
| 1777781469 | 7.22° C | 100% | 1015 hPa | - | - | - | - |
| 1777780569 | 7.22° C | 100% | 1015.2 hPa | - | - | - | - |
| 1777779669 | 7.22° C | 100% | 1015.1 hPa | - | - | - | - |
| 1777778769 | 7.22° C | 100% | 1015.3 hPa | - | - | - | - |
| 1777777869 | 7.78° C | 100% | 1015.4 hPa | - | - | - | - |
| 1777776969 | 7.78° C | 100% | 1015.4 hPa | - | - | - | - |
| 1777776069 | 7.78° C | 100% | 1015.6 hPa | - | - | - | - |
| 1777775169 | 7.78° C | 100% | 1015.9 hPa | - | - | - | - |
| 1777774268 | 7.78° C | 100% | 1016 hPa | - | - | - | - |
| 1777773372 | 8.33° C | 100% | 1016 hPa | - | - | - | - |
| 1777772468 | 8.33° C | 100% | 1015.8 hPa | - | - | - | - |
| 1777771568 | 8.33° C | 100% | 1016 hPa | - | - | - | - |
| 1777770668 | 8.89° C | 100% | 1016 hPa | - | - | - | - |
* Rain since midnight (hover to see other rain measurements)
** Current wind speed in m/s (hover to see current wind gust speed)